Location: Asheville, NC
(35.6000°N, 82.5500°W)
Time: 23:31:09
(UTC-04:00)

Iridium 28 - Pass Details

Date: 12 January 2018
Orbit: 771 x 775 km, 86.4° (Epoch: 17 June)

Event Time Altitude Azimuth Distance (km) Brightness Sun altitude
Rises 17:56:13 0° 357° (N) 3,255 8.5 -4.3°
Reaches altitude 10° 17:58:34 10° 358° (N) 2,324 7.8 -4.7°
Maximum altitude 18:03:47 90° 272° (W) 777 5.6 -5.7°
Drops below altitude 10° 18:08:57 10° 180° (S) 2,306 8.3 -6.6°
Sets 18:11:16 0° 180° (S) 3,229 9.0 -7.1°
